Date,Time,Wetness (Wet Dry or Ice),Wind Speed (m/s),Temperature (C),Humidity (%),Pressure (mb),Radiation (W/m^2)
2020-02-14,02:35:00,DRY,3.10,6.90,38.0,777.00,0.5
2020-02-14,02:40:00,DRY,3.20,6.80,38.0,777.00,1.2
2020-02-14,02:45:00,DRY,3.60,6.80,36.5,777.00,1.0
2020-02-14,02:50:00,DRY,2.77,6.87,35.0,777.00,0.7
2020-02-14,02:55:00,DRY,2.45,7.15,29.0,777.00,1.2
2020-02-14,03:00:00,DRY,3.27,7.27,28.3,777.00,1.6
2020-02-14,03:05:00,DRY,3.20,7.10,35.0,777.00,0.9
2020-02-14,03:10:00,DRY,4.83,6.77,44.0,777.00,1.1
2020-02-14,03:15:00,DRY,4.10,6.65,47.5,777.00,1.1
2020-02-14,03:20:00,DRY,3.67,6.53,48.7,777.00,0.8
2020-02-14,03:25:00,DRY,3.60,6.55,49.0,777.00,1.3
2020-02-14,03:30:00,DRY,3.73,6.27,47.7,777.00,1.1
2020-02-14,03:35:00,DRY,5.05,6.25,49.5,777.00,1.0
2020-02-14,03:40:00,DRY,3.67,6.37,48.7,777.00,1.0
2020-02-14,03:45:00,DRY,2.90,6.45,48.5,777.00,2.9
2020-02-14,03:50:00,DRY,3.70,6.30,50.0,777.00,1.5
2020-02-14,03:55:00,DRY,5.40,6.40,50.5,777.00,1.3
2020-02-14,04:00:00,DRY,4.33,6.47,50.3,777.00,1.0
2020-02-14,04:05:00,DRY,4.35,6.50,51.0,777.00,1.1
2020-02-14,04:10:00,DRY,4.43,6.40,50.3,777.00,1.1
2020-02-14,04:15:00,DRY,3.75,6.50,49.5,777.00,0.7
2020-02-14,04:20:00,DRY,4.33,6.37,50.3,777.00,0.9
2020-02-14,04:25:00,DRY,5.25,6.40,51.0,777.00,1.2
2020-02-14,04:30:00,DRY,4.30,6.40,50.3,776.67,1.3
2020-02-14,04:35:00,DRY,4.85,6.40,50.0,776.00,0.9
2020-02-14,04:40:00,DRY,4.30,6.47,48.0,776.67,1.3
2020-02-14,04:45:00,DRY,4.05,6.45,50.0,776.00,1.1
2020-02-14,04:50:00,DRY,3.87,6.40,49.3,776.00,1.5
2020-02-14,04:55:00,DRY,4.25,6.30,49.0,776.50,1.1
2020-02-14,05:00:00,DRY,3.73,6.30,48.7,776.33,1.4
2020-02-14,05:05:00,DRY,4.70,6.35,49.5,776.00,1.1
2020-02-14,05:10:00,DRY,4.27,6.27,49.3,776.00,0.8
2020-02-14,05:15:00,DRY,4.30,6.30,49.5,776.00,1.3
2020-02-14,05:20:00,DRY,4.53,6.37,49.0,776.00,1.4
2020-02-14,05:25:00,DRY,4.05,6.40,50.0,776.00,1.6
2020-02-14,05:30:00,DRY,5.03,6.37,49.3,776.00,1.2
2020-02-14,05:35:00,DRY,3.80,6.40,50.0,776.00,1.1
2020-02-14,05:40:00,DRY,5.20,6.40,49.3,776.00,1.1
2020-02-14,05:45:00,DRY,4.55,6.45,49.5,776.50,1.1
2020-02-14,05:50:00,DRY,3.97,6.40,49.0,776.00,1.3
2020-02-14,05:55:00,DRY,4.70,6.40,49.0,776.00,0.9
2020-02-14,06:00:00,DRY,4.90,6.40,49.0,776.00,0.9
2020-02-14,06:05:00,DRY,4.70,6.45,49.5,776.00,1.4
2020-02-14,06:10:00,DRY,5.13,6.40,49.3,777.00,1.1
2020-02-14,06:15:00,DRY,4.80,6.40,49.5,776.50,0.8
2020-02-14,06:20:00,DRY,5.17,6.40,49.7,777.00,0.9
2020-02-14,06:25:00,DRY,3.95,6.45,50.0,777.00,1.1
2020-02-14,06:30:00,DRY,3.70,6.40,50.3,777.00,1.2
2020-02-14,06:35:00,DRY,4.50,6.45,50.5,776.50,0.8
2020-02-14,06:40:00,DRY,2.53,6.33,49.7,777.00,1.5
2020-02-14,06:45:00,DRY,3.80,6.45,48.0,777.00,1.1
2020-02-14,06:50:00,DRY,3.30,6.43,50.0,777.00,1.0
2020-02-14,06:55:00,DRY,4.55,6.40,49.5,777.00,1.4
2020-02-14,07:00:00,DRY,4.50,6.50,51.7,777.00,1.1
2020-02-14,07:05:00,DRY,4.35,6.40,52.0,777.00,1.1
2020-02-14,07:10:00,DRY,4.57,6.57,51.0,777.00,1.1
2020-02-14,07:15:00,DRY,4.80,6.55,51.5,777.00,1.0
2020-02-14,07:20:00,DRY,5.20,6.57,51.7,777.00,1.6
2020-02-14,07:25:00,DRY,5.90,6.65,52.0,777.00,1.6
2020-02-14,07:30:00,DRY,4.53,6.70,51.0,777.00,2.3
2020-02-14,07:35:00,DRY,3.95,6.80,49.5,777.00,1.4
2020-02-14,07:40:00,DRY,4.60,6.73,49.7,777.00,2.0
2020-02-14,07:45:00,DRY,4.55,6.85,49.5,777.00,4.8
2020-02-14,07:50:00,DRY,4.30,6.87,49.0,777.00,4.8
2020-02-14,07:55:00,DRY,3.15,6.80,48.5,777.00,5.8
2020-02-14,08:00:00,DRY,3.07,6.83,48.0,777.00,9.2
2020-02-14,08:05:00,DRY,2.60,6.90,48.5,777.00,17.9
2020-02-14,08:10:00,DRY,2.67,6.80,48.0,777.00,31.7
2020-02-14,08:15:00,DRY,3.05,6.85,50.0,777.50,42.7
2020-02-14,08:20:00,DRY,3.30,6.90,48.0,777.33,64.2
2020-02-14,08:25:00,DRY,3.25,7.05,48.0,778.00,105.2
2020-02-14,08:30:00,DRY,3.53,7.17,46.7,778.00,131.5
2020-02-14,08:35:00,DRY,2.00,7.25,47.0,778.00,133.6
2020-02-14,08:40:00,DRY,3.37,7.20,46.7,778.00,135.5
2020-02-14,08:45:00,DRY,2.25,7.30,44.5,778.00,149.4
2020-02-14,08:50:00,DRY,2.57,7.40,45.0,778.00,153.5
2020-02-14,08:55:00,DRY,3.25,7.40,45.5,778.00,131.6
2020-02-14,09:00:00,DRY,2.97,7.30,45.3,778.00,80.6
2020-02-14,09:05:00,DRY,3.80,7.35,45.5,778.00,99.9
2020-02-14,09:10:00,DRY,3.30,7.40,46.3,778.00,230.9
2020-02-14,09:15:00,DRY,4.35,7.60,45.5,778.00,242.5
2020-02-14,09:20:00,DRY,3.40,7.67,45.7,778.00,247.0
2020-02-14,09:25:00,DRY,3.60,7.75,43.5,778.00,269.0
2020-02-14,09:30:00,DRY,4.23,7.80,44.7,778.00,317.7
2020-02-14,09:35:00,DRY,2.75,7.95,44.5,778.00,266.8
2020-02-14,09:40:00,DRY,3.67,8.07,44.0,778.00,400.6
2020-02-14,09:45:00,DRY,4.60,8.30,44.0,778.00,511.9
2020-02-14,09:50:00,DRY,3.27,8.37,43.0,778.00,528.2
2020-02-14,09:55:00,DRY,2.80,8.55,43.5,778.00,353.9
2020-02-14,10:00:00,DRY,3.13,8.47,43.7,778.00,240.8
2020-02-14,10:05:00,DRY,3.55,8.40,44.0,778.00,390.1
2020-02-14,10:10:00,DRY,2.43,8.40,44.0,778.00,286.5
2020-02-14,10:15:00,DRY,1.60,8.40,45.0,778.00,259.4
2020-02-14,10:20:00,DRY,3.43,8.33,44.7,778.00,296.3
2020-02-14,10:25:00,DRY,2.75,8.35,44.5,778.00,601.5
2020-02-14,10:30:00,DRY,3.43,8.83,44.3,778.00,516.9
2020-02-14,10:35:00,DRY,3.20,8.80,44.5,778.00,577.1
2020-02-14,10:40:00,DRY,2.40,8.83,44.3,778.00,484.9
2020-02-14,10:45:00,DRY,1.20,9.20,44.5,778.00,656.8
2020-02-14,10:50:00,DRY,2.27,9.37,44.0,778.00,528.2
2020-02-14,10:55:00,DRY,1.00,9.30,45.0,778.00,535.8
2020-02-14,11:00:00,DRY,1.23,9.27,46.7,778.00,507.6
2020-02-14,11:05:00,DRY,1.35,8.95,46.5,778.00,628.8
2020-02-14,11:10:00,DRY,0.83,9.23,47.7,778.00,599.7
2020-02-14,11:15:00,DRY,1.80,9.75,44.5,778.00,654.9
2020-02-14,11:20:00,DRY,1.30,9.43,44.3,778.00,665.1
2020-02-14,11:25:00,DRY,1.65,9.55,45.0,778.00,677.6
2020-02-14,11:30:00,DRY,1.83,9.67,45.7,778.00,699.4
2020-02-14,11:35:00,DRY,1.95,9.90,45.0,778.00,690.5
2020-02-14,11:40:00,DRY,1.27,9.80,45.7,778.00,714.6
2020-02-14,11:45:00,DRY,1.80,9.15,49.0,778.00,735.8
2020-02-14,11:50:00,DRY,1.10,9.33,48.3,778.00,751.1
2020-02-14,11:55:00,DRY,1.95,9.45,48.5,778.00,764.2
2020-02-14,12:00:00,DRY,2.07,9.27,51.0,778.00,760.4
2020-02-14,12:05:00,DRY,1.90,8.95,53.5,778.00,773.2
2020-02-14,12:10:00,DRY,1.57,8.80,52.7,778.00,651.9
2020-02-14,12:15:00,DRY,1.80,9.15,52.0,778.00,781.8
2020-02-14,12:20:00,DRY,1.80,8.87,53.0,778.00,784.2
2020-02-14,12:25:00,DRY,0.60,9.40,51.0,778.00,785.5
2020-02-14,12:30:00,DRY,1.33,9.80,50.0,778.00,819.0
2020-02-14,12:35:00,DRY,1.65,9.45,52.0,778.00,825.5
2020-02-14,12:40:00,DRY,1.33,9.20,52.3,778.00,872.7
2020-02-14,12:45:00,DRY,1.40,9.50,52.5,778.00,796.3
2020-02-14,12:50:00,DRY,1.87,9.63,51.3,778.00,750.4
2020-02-14,12:55:00,DRY,1.60,9.05,54.0,778.00,829.8
2020-02-14,13:00:00,DRY,2.40,9.63,53.3,778.00,653.8
2020-02-14,13:05:00,DRY,2.45,9.15,53.5,778.00,755.4
2020-02-14,13:10:00,DRY,2.33,8.93,56.3,778.00,643.1
2020-02-14,13:15:00,DRY,1.45,8.60,58.0,778.00,528.6
2020-02-14,13:20:00,DRY,2.07,8.97,56.3,778.00,499.5
2020-02-14,13:25:00,DRY,1.20,8.80,56.0,778.00,453.1
2020-02-14,13:30:00,DRY,1.90,8.40,58.0,778.00,504.7
2020-02-14,13:35:00,DRY,2.00,8.60,61.0,778.00,400.8
2020-02-14,13:40:00,DRY,1.70,8.47,60.7,778.00,838.2
2020-02-14,13:45:00,DRY,1.55,8.65,59.0,778.00,852.5
2020-02-14,13:50:00,DRY,1.43,9.03,58.0,778.00,703.4
2020-02-14,13:55:00,DRY,2.05,9.60,54.5,778.00,859.9
2020-02-14,14:00:00,DRY,2.37,9.10,56.3,778.00,458.1
2020-02-14,14:05:00,DRY,1.65,8.55,58.5,778.00,459.4
2020-02-14,14:10:00,DRY,2.33,8.70,58.3,778.00,830.7
2020-02-14,14:15:00,DRY,2.45,8.80,57.0,777.00,788.8
2020-02-14,14:20:00,DRY,1.77,9.37,56.0,777.00,773.3
2020-02-14,14:25:00,DRY,1.30,9.15,56.5,777.00,490.7
2020-02-14,14:30:00,DRY,2.03,8.63,58.3,777.00,504.9
2020-02-14,14:35:00,DRY,2.20,8.65,57.5,777.00,375.7
2020-02-14,14:40:00,DRY,1.23,8.53,58.7,777.00,288.7
2020-02-14,14:45:00,DRY,1.00,8.45,59.5,777.00,328.6
2020-02-14,14:50:00,DRY,1.30,8.63,59.0,777.00,420.5
2020-02-14,14:55:00,DRY,1.85,8.95,59.0,777.00,491.4
2020-02-14,15:00:00,DRY,1.60,9.27,57.0,777.00,507.0
2020-02-14,15:05:00,DRY,0.90,8.80,57.5,777.00,237.4
2020-02-14,15:10:00,DRY,1.13,8.43,59.0,777.00,449.9
2020-02-14,15:15:00,DRY,1.10,8.60,59.0,777.00,372.5
2020-02-14,15:20:00,DRY,1.03,8.97,58.0,777.00,385.0
2020-02-14,15:25:00,DRY,1.60,8.90,57.5,777.00,267.9
2020-02-14,15:30:00,DRY,1.50,8.73,59.0,777.00,244.1
2020-02-14,15:35:00,DRY,0.95,8.55,59.0,777.00,241.6
2020-02-14,15:40:00,DRY,1.23,8.57,60.7,777.00,298.3
2020-02-14,15:45:00,DRY,0.80,8.55,64.0,777.00,268.2
2020-02-14,15:50:00,DRY,0.73,8.63,65.3,777.00,302.2
2020-02-14,15:55:00,DRY,0.80,8.45,66.0,777.00,326.9
2020-02-14,16:00:00,DRY,0.73,8.33,67.0,777.00,273.2
2020-02-14,16:05:00,DRY,1.80,8.35,62.0,777.00,456.0
2020-02-14,16:10:00,DRY,2.03,8.77,61.3,777.00,576.8
2020-02-14,16:15:00,DRY,0.95,9.25,61.0,777.00,471.5
2020-02-14,16:20:00,DRY,1.50,9.13,60.7,777.00,552.0
2020-02-14,16:25:00,DRY,2.20,8.70,64.5,777.00,505.5
2020-02-14,16:30:00,DRY,1.20,8.37,65.3,777.00,503.9
2020-02-14,16:35:00,DRY,1.45,9.05,61.5,777.00,492.7
2020-02-14,16:40:00,DRY,0.93,9.07,61.3,777.00,458.2
2020-02-14,16:45:00,DRY,2.40,9.00,61.0,777.00,423.5
2020-02-14,16:50:00,DRY,0.70,8.67,61.7,777.00,379.3
2020-02-14,16:55:00,DRY,1.40,8.55,61.5,777.00,405.3
2020-02-14,17:00:00,DRY,1.30,8.43,63.3,777.00,338.0
2020-02-14,17:05:00,DRY,0.60,8.20,65.0,777.00,302.3
2020-02-14,17:10:00,DRY,1.33,8.17,64.7,777.00,288.2
2020-02-14,17:15:00,DRY,0.95,8.20,64.0,777.00,309.2
2020-02-14,17:20:00,DRY,1.37,8.17,64.3,777.00,287.9
2020-02-14,17:25:00,DRY,1.40,8.05,64.5,777.00,258.9
2020-02-14,17:30:00,DRY,1.07,7.83,65.3,777.00,248.4
2020-02-14,17:35:00,DRY,0.65,7.90,65.0,777.00,230.7
2020-02-14,17:40:00,DRY,0.80,7.93,64.0,777.00,199.3
2020-02-14,17:45:00,DRY,0.85,8.00,64.5,777.00,189.1
2020-02-14,17:50:00,DRY,0.57,7.93,63.0,777.00,186.7
2020-02-14,17:55:00,DRY,0.70,7.75,65.0,777.00,178.8
2020-02-14,18:00:00,DRY,0.53,7.80,64.3,777.00,141.4
2020-02-14,18:05:00,DRY,1.05,7.55,61.5,777.00,94.8
2020-02-14,18:10:00,DRY,0.93,6.93,63.0,777.00,75.5
2020-02-14,18:15:00,DRY,1.05,6.55,63.5,777.00,65.3
2020-02-14,18:20:00,DRY,1.17,6.43,62.3,777.67,59.6
2020-02-14,18:25:00,DRY,1.20,6.35,63.0,778.00,67.7
2020-02-14,18:30:00,DRY,1.20,6.47,60.7,778.00,69.6
2020-02-14,18:35:00,DRY,1.15,6.40,59.5,778.00,46.5
2020-02-14,18:40:00,DRY,1.23,6.23,58.3,778.00,28.7
2020-02-14,18:45:00,DRY,1.35,6.15,57.5,778.00,18.1
2020-02-14,18:50:00,DRY,2.03,6.10,56.3,778.00,11.7
2020-02-14,18:55:00,DRY,2.25,6.00,57.5,778.00,8.3
2020-02-14,19:00:00,DRY,2.73,5.90,59.3,778.00,5.4
2020-02-14,19:05:00,DRY,2.50,5.80,59.5,778.00,4.0
2020-02-14,19:10:00,DRY,2.43,5.83,60.0,778.00,2.8
2020-02-14,19:15:00,DRY,3.15,5.90,59.5,778.00,2.0
2020-02-14,19:20:00,DRY,2.37,5.83,59.3,778.00,1.3
2020-02-14,19:25:00,DRY,2.70,5.80,59.0,778.00,0.7
2020-02-14,19:30:00,DRY,3.20,5.80,58.0,778.00,1.0
2020-02-14,19:35:00,DRY,3.15,5.80,58.5,778.00,1.0
2020-02-14,19:40:00,DRY,3.47,5.87,58.0,778.00,1.3
2020-02-14,19:45:00,DRY,3.10,5.80,59.5,778.00,1.8
2020-02-14,19:50:00,DRY,3.23,5.63,64.7,778.00,1.6
2020-02-14,19:55:00,DRY,3.50,5.50,69.0,778.00,1.4
2020-02-14,20:00:00,DRY,2.43,5.50,69.7,778.00,1.4
2020-02-14,20:05:00,DRY,1.85,5.45,70.0,778.00,0.6
2020-02-14,20:10:00,DRY,2.00,5.40,70.7,778.00,2.4
2020-02-14,20:15:00,DRY,2.90,5.50,66.5,779.00,1.9
2020-02-14,20:20:00,DRY,3.20,5.93,60.0,778.00,1.0
2020-02-14,20:25:00,DRY,1.90,6.00,60.5,778.00,1.4
2020-02-14,20:30:00,DRY,1.43,6.30,60.7,778.33,0.9
2020-02-14,20:35:00,DRY,2.30,6.80,59.5,779.00,0.8
2020-02-14,20:40:00,DRY,1.83,7.03,59.0,778.00,1.1
2020-02-14,20:45:00,DRY,1.45,7.05,59.0,778.00,1.2
2020-02-14,20:50:00,DRY,1.67,6.87,59.0,778.33,1.5
2020-02-14,20:55:00,DRY,1.20,6.85,55.0,778.00,1.8
2020-02-14,21:00:00,DRY,1.57,7.07,52.0,778.00,1.8
2020-02-14,21:05:00,DRY,1.60,6.95,52.5,778.00,0.7
2020-02-14,21:10:00,DRY,2.10,6.73,53.7,778.33,0.9
2020-02-14,21:15:00,DRY,1.45,6.80,55.5,778.50,2.1
2020-02-14,21:20:00,DRY,2.07,6.83,58.7,778.33,1.4
2020-02-14,21:25:00,DRY,1.30,6.80,58.0,779.00,1.1
2020-02-14,21:30:00,DRY,2.53,6.90,59.3,778.67,0.9
2020-02-14,21:35:00,DRY,3.90,7.30,58.0,779.00,1.6
2020-02-14,21:40:00,DRY,2.80,7.27,57.0,778.67,1.0
2020-02-14,21:45:00,DRY,3.35,7.30,57.0,779.00,1.2
2020-02-14,21:50:00,DRY,3.97,7.30,57.3,778.67,1.3
2020-02-14,21:55:00,DRY,3.70,7.25,57.5,779.00,1.1
2020-02-14,22:00:00,DRY,3.17,7.20,56.7,779.00,0.7
2020-02-14,22:05:00,DRY,2.65,7.25,56.5,779.00,1.4
2020-02-14,22:10:00,DRY,4.40,7.30,55.0,779.00,1.5
2020-02-14,22:15:00,DRY,3.65,7.40,55.0,779.00,2.2
2020-02-14,22:20:00,DRY,4.43,7.47,56.0,779.00,1.6
2020-02-14,22:25:00,DRY,3.25,7.35,56.5,779.00,0.7
2020-02-14,22:30:00,DRY,3.20,7.30,57.0,779.00,1.4
2020-02-14,22:35:00,DRY,3.35,7.25,57.5,779.00,1.1
2020-02-14,22:40:00,DRY,2.27,7.13,57.7,779.00,1.2
2020-02-14,22:45:00,DRY,1.60,7.00,57.5,779.00,0.8
2020-02-14,22:50:00,DRY,3.03,7.13,56.0,779.00,1.1
2020-02-14,22:55:00,DRY,3.45,7.15,55.5,779.00,0.6
2020-02-14,23:00:00,DRY,2.97,7.13,56.3,779.00,1.0
2020-02-14,23:05:00,DRY,2.10,7.05,57.0,779.00,0.9
2020-02-14,23:10:00,DRY,1.90,7.00,57.0,779.00,0.9
2020-02-14,23:15:00,DRY,1.70,7.00,57.0,779.00,1.3
2020-02-14,23:20:00,DRY,1.67,6.87,58.0,779.00,1.3
2020-02-14,23:25:00,DRY,1.30,6.55,59.0,779.00,1.6
2020-02-14,23:30:00,DRY,1.10,6.43,60.0,779.00,1.3
2020-02-14,23:35:00,DRY,0.75,6.45,59.5,779.00,1.8
2020-02-14,23:40:00,DRY,1.13,6.37,60.0,779.00,1.2
2020-02-14,23:45:00,DRY,0.50,6.10,60.5,779.00,1.1
2020-02-14,23:50:00,DRY,0.57,6.07,61.0,779.00,1.3
2020-02-14,23:55:00,DRY,0.60,6.10,61.0,779.00,1.4
2020-02-15,00:00:00,DRY,1.07,6.33,60.0,779.00,1.0
2020-02-15,00:05:00,DRY,0.80,6.50,59.0,779.00,1.0
2020-02-15,00:10:00,DRY,1.23,6.30,59.7,779.00,1.4
2020-02-15,00:15:00,DRY,0.85,6.20,60.0,779.00,1.8
2020-02-15,00:20:00,DRY,2.13,6.53,60.0,779.00,0.8
2020-02-15,00:25:00,DRY,1.95,6.65,59.0,779.00,1.5
2020-02-15,00:30:00,DRY,2.00,6.63,59.0,779.00,2.0
2020-02-15,00:35:00,DRY,3.10,6.70,59.0,779.00,1.7
2020-02-15,00:40:00,DRY,1.43,6.70,59.0,779.00,1.3
2020-02-15,00:45:00,DRY,2.20,6.80,59.0,779.00,1.0
2020-02-15,00:50:00,DRY,1.87,6.70,59.0,779.00,0.5
2020-02-15,00:55:00,DRY,2.25,6.70,59.0,779.00,2.2
2020-02-15,01:00:00,DRY,2.80,6.70,59.0,778.33,0.8
2020-02-15,01:05:00,DRY,3.35,6.75,59.0,778.50,1.2
2020-02-15,01:10:00,DRY,2.07,6.97,58.0,778.67,0.8
2020-02-15,01:15:00,DRY,0.90,6.80,58.0,779.00,2.1
2020-02-15,01:20:00,DRY,1.23,6.63,59.0,778.67,2.5
2020-02-15,01:25:00,DRY,1.30,6.45,60.0,778.50,0.1
2020-02-15,01:30:00,DRY,1.50,5.80,61.7,779.00,1.0
2020-02-15,01:35:00,DRY,1.25,5.75,61.0,779.00,2.2
2020-02-15,01:40:00,DRY,0.60,5.97,60.0,778.67,0.9
2020-02-15,01:45:00,DRY,0.95,6.30,60.0,778.50,1.6
2020-02-15,01:50:00,DRY,1.47,6.60,59.0,778.00,2.0
2020-02-15,01:55:00,DRY,1.15,6.30,58.0,778.50,1.8
2020-02-15,02:00:00,DRY,1.10,6.20,58.0,778.33,1.5
2020-02-15,02:05:00,DRY,1.20,6.10,58.0,778.00,1.2
2020-02-15,02:10:00,DRY,1.23,6.07,59.3,778.00,1.5
2020-02-15,02:15:00,DRY,0.55,6.40,59.5,778.00,1.7
2020-02-15,02:20:00,DRY,1.07,6.43,58.0,778.00,1.7
2020-02-15,02:25:00,DRY,0.65,6.25,59.5,778.00,1.6
2020-02-15,02:30:00,DRY,1.20,6.00,59.3,778.00,0.6
2020-02-15,02:35:00,DRY,0.95,5.95,59.5,778.00,1.4
2020-02-15,02:40:00,DRY,1.20,6.13,59.0,778.00,1.8
2020-02-15,02:45:00,DRY,0.50,6.20,59.0,778.00,1.4
2020-02-15,02:50:00,DRY,0.73,6.10,59.0,778.00,1.6
2020-02-15,02:55:00,DRY,0.45,6.05,60.0,778.00,1.4
2020-02-15,03:00:00,DRY,1.07,6.00,60.0,778.00,1.6
2020-02-15,03:05:00,DRY,1.20,5.85,60.0,778.00,0.1
2020-02-15,03:10:00,DRY,1.47,5.67,61.0,778.00,1.7
2020-02-15,03:15:00,DRY,1.90,5.40,61.0,778.00,2.2
2020-02-15,03:20:00,DRY,1.30,5.47,61.0,778.00,2.0
2020-02-15,03:25:00,DRY,1.20,5.80,61.0,778.00,1.6
2020-02-15,03:30:00,DRY,1.10,6.17,60.0,778.00,1.2
2020-02-15,03:35:00,DRY,1.20,6.25,60.0,778.00,2.3
2020-02-15,03:40:00,DRY,1.13,6.23,60.0,778.00,1.1
2020-02-15,03:45:00,DRY,1.35,6.15,60.0,778.00,2.0
2020-02-15,03:50:00,DRY,0.80,5.87,60.0,778.00,1.4
2020-02-15,03:55:00,DRY,1.00,6.00,60.0,778.00,1.2
2020-02-15,04:00:00,DRY,1.60,6.27,60.0,777.33,1.5
2020-02-15,04:05:00,DRY,0.85,6.10,60.0,778.00,0.8
2020-02-15,04:10:00,DRY,0.90,6.07,60.0,777.33,1.2
2020-02-15,04:15:00,DRY,0.75,5.75,60.0,777.50,1.7
2020-02-15,04:20:00,DRY,0.90,5.57,61.0,777.33,1.9
2020-02-15,04:25:00,DRY,1.15,5.65,61.0,777.00,0.6
2020-02-15,04:30:00,DRY,1.40,5.57,60.7,777.00,1.3
2020-02-15,04:35:00,DRY,1.90,5.25,62.0,777.00,1.6
2020-02-15,04:40:00,DRY,2.30,4.97,62.3,777.00,1.5
2020-02-15,04:45:00,DRY,2.35,4.95,63.0,777.00,0.4
2020-02-15,04:50:00,DRY,2.07,4.90,63.0,777.00,0.9
2020-02-15,04:55:00,DRY,2.20,4.95,63.0,777.00,1.6
2020-02-15,05:00:00,DRY,1.87,4.90,63.3,777.00,0.7
2020-02-15,05:05:00,DRY,2.15,4.85,63.5,777.00,1.7
2020-02-15,05:10:00,DRY,2.57,4.93,63.0,777.00,1.5
2020-02-15,05:15:00,DRY,2.60,5.10,63.0,777.00,1.2
2020-02-15,05:20:00,DRY,2.47,4.93,63.3,777.00,0.8
2020-02-15,05:25:00,DRY,2.95,4.90,63.5,777.00,1.7
2020-02-15,05:30:00,DRY,2.83,4.97,63.0,777.00,1.8
2020-02-15,05:35:00,DRY,3.60,5.05,62.0,777.00,3.4
2020-02-15,05:40:00,DRY,2.80,5.10,62.0,777.00,1.3
2020-02-15,05:45:00,DRY,3.60,5.05,62.0,777.00,0.9
2020-02-15,05:50:00,DRY,2.87,5.03,62.0,777.00,1.3
2020-02-15,05:55:00,DRY,2.05,5.00,62.0,777.00,1.1
2020-02-15,06:00:00,DRY,2.00,5.03,62.0,777.00,1.6
2020-02-15,06:05:00,DRY,2.85,5.10,61.0,777.00,1.0
2020-02-15,06:10:00,DRY,3.43,4.90,62.0,777.67,1.2
2020-02-15,06:15:00,DRY,3.30,4.95,63.0,777.00,2.5
2020-02-15,06:20:00,DRY,2.93,4.97,63.0,777.67,1.3
2020-02-15,06:25:00,DRY,2.30,4.90,62.5,777.50,1.1
2020-02-15,06:30:00,DRY,2.57,4.90,63.3,778.00,1.4
2020-02-15,06:35:00,DRY,2.85,5.05,64.0,777.50,0.8
2020-02-15,06:40:00,DRY,2.67,5.07,64.0,777.67,1.2
2020-02-15,06:45:00,DRY,1.95,5.10,64.0,778.00,0.8
2020-02-15,06:50:00,DRY,2.60,5.00,64.3,778.00,1.1
2020-02-15,06:55:00,DRY,3.45,5.00,64.5,778.00,1.4
2020-02-15,07:00:00,DRY,3.37,5.07,64.7,778.00,1.5
2020-02-15,07:05:00,DRY,3.25,5.05,66.5,778.00,1.7
2020-02-15,07:10:00,DRY,2.83,5.07,67.3,778.00,1.3
2020-02-15,07:15:00,DRY,2.55,5.05,67.0,778.00,2.1
2020-02-15,07:20:00,DRY,2.60,5.00,66.7,778.00,1.3
2020-02-15,07:25:00,DRY,2.95,4.95,66.0,778.00,0.9
2020-02-15,07:30:00,DRY,3.27,5.07,65.7,778.00,1.4
2020-02-15,07:35:00,DRY,4.00,5.10,66.0,778.00,1.1
2020-02-15,07:40:00,DRY,3.87,5.03,66.3,778.00,2.7
2020-02-15,07:45:00,DRY,2.70,5.10,66.0,778.00,3.5
2020-02-15,07:50:00,DRY,3.27,4.97,66.7,778.00,5.8
2020-02-15,07:55:00,DRY,3.90,5.00,67.0,778.00,9.0
2020-02-15,08:00:00,DRY,3.83,5.07,66.3,778.00,13.2
2020-02-15,08:05:00,DRY,3.35,5.00,66.5,778.00,18.6
2020-02-15,08:10:00,DRY,3.20,5.10,66.0,778.00,25.8
2020-02-15,08:15:00,DRY,2.80,5.25,65.5,778.00,36.3
2020-02-15,08:20:00,DRY,3.23,5.13,66.0,778.00,47.5
2020-02-15,08:25:00,DRY,3.05,5.15,66.0,778.00,58.3
2020-02-15,08:30:00,DRY,3.87,5.23,66.7,778.33,74.8
2020-02-15,08:35:00,DRY,2.60,5.25,67.0,779.00,90.4
2020-02-15,08:40:00,DRY,3.53,5.33,66.7,778.67,108.6
2020-02-15,08:45:00,DRY,3.30,5.40,67.0,779.00,128.4
2020-02-15,08:50:00,DRY,2.77,5.47,67.0,779.00,151.3
2020-02-15,08:55:00,DRY,3.45,5.50,67.0,779.00,170.4
2020-02-15,09:00:00,DRY,3.63,5.60,67.3,779.00,188.5
2020-02-15,09:05:00,DRY,4.50,5.60,67.0,779.00,208.9
2020-02-15,09:10:00,DRY,4.07,5.70,67.0,779.00,229.4
2020-02-15,09:15:00,DRY,4.50,5.70,68.5,779.00,252.8
2020-02-15,09:20:00,DRY,3.83,5.80,68.3,779.00,275.2
2020-02-15,09:25:00,DRY,3.40,5.90,68.0,779.00,295.4
2020-02-15,09:30:00,DRY,4.37,5.93,68.0,779.00,315.3
2020-02-15,09:35:00,DRY,4.35,6.00,68.0,779.00,340.1
2020-02-15,09:40:00,DRY,4.30,6.10,67.7,779.00,361.4
2020-02-15,09:45:00,DRY,4.60,6.10,67.5,779.00,383.5
2020-02-15,09:50:00,DRY,4.07,6.20,67.3,779.00,406.3
2020-02-15,09:55:00,DRY,5.05,6.30,67.0,779.00,429.1
2020-02-15,10:00:00,DRY,4.00,6.37,67.3,779.00,451.0
2020-02-15,10:05:00,DRY,4.25,6.65,67.0,779.00,467.8
2020-02-15,10:10:00,DRY,4.37,6.53,67.7,779.00,486.7
2020-02-15,10:15:00,DRY,3.15,6.75,67.0,779.00,502.1
2020-02-15,10:20:00,DRY,4.23,6.87,66.7,779.00,515.6
2020-02-15,10:25:00,DRY,4.45,6.90,67.0,779.00,534.7
2020-02-15,10:30:00,DRY,3.43,6.90,66.0,779.00,549.4
2020-02-15,10:35:00,DRY,3.80,7.10,65.0,779.00,564.2
2020-02-15,10:40:00,DRY,4.17,7.17,65.0,779.00,577.6
2020-02-15,10:45:00,DRY,3.85,7.20,65.5,779.00,590.9
2020-02-15,10:50:00,DRY,3.63,7.27,62.7,779.00,607.9
2020-02-15,10:55:00,DRY,4.70,7.25,60.0,779.00,625.2
2020-02-15,11:00:00,DRY,4.67,7.30,60.0,779.00,639.7
2020-02-15,11:05:00,DRY,4.40,7.20,63.0,779.00,650.8
2020-02-15,11:10:00,DRY,3.60,7.40,63.0,779.00,667.8
2020-02-15,11:15:00,DRY,3.30,7.80,62.0,779.00,679.5
2020-02-15,11:20:00,DRY,3.43,7.70,63.0,779.00,690.2
2020-02-15,11:25:00,DRY,3.65,7.95,61.5,779.00,704.0
2020-02-15,11:30:00,DRY,2.90,7.43,64.0,779.00,712.0
2020-02-15,11:35:00,DRY,2.65,7.80,60.0,779.00,722.4
2020-02-15,11:40:00,DRY,3.30,7.70,62.3,779.00,732.8
2020-02-15,11:45:00,DRY,2.65,7.50,62.5,779.00,741.8
2020-02-15,11:50:00,DRY,3.00,8.00,60.7,779.00,751.7
2020-02-15,11:55:00,DRY,3.30,8.30,58.5,779.00,761.5
2020-02-15,12:00:00,DRY,1.80,7.70,60.7,779.00,765.0
2020-02-15,12:05:00,DRY,1.80,7.55,58.0,779.00,770.3
2020-02-15,12:10:00,DRY,1.80,7.77,58.7,779.00,775.9
2020-02-15,12:15:00,DRY,1.80,7.90,57.0,779.00,782.1
2020-02-15,12:20:00,DRY,2.03,7.77,56.0,779.00,788.7
2020-02-15,12:25:00,DRY,2.35,8.10,54.0,779.00,795.6
2020-02-15,12:30:00,DRY,2.77,8.47,51.3,779.00,804.5
2020-02-15,12:35:00,DRY,2.35,8.10,50.0,779.00,805.2
2020-02-15,12:40:00,DRY,1.60,8.30,50.3,779.00,811.1
2020-02-15,12:45:00,DRY,3.25,8.70,48.0,779.00,827.7
2020-02-15,12:50:00,DRY,3.30,8.40,48.3,779.00,818.9
2020-02-15,12:55:00,DRY,3.25,8.95,48.5,779.00,821.1
2020-02-15,13:00:00,DRY,2.23,8.57,46.3,779.00,821.4
2020-02-15,13:05:00,DRY,2.75,8.35,45.5,779.00,823.9
2020-02-15,13:10:00,DRY,2.17,8.60,45.3,778.67,833.4
2020-02-15,13:15:00,DRY,2.10,8.10,47.0,778.50,832.2
2020-02-15,13:20:00,DRY,2.60,8.53,45.0,778.00,835.7
2020-02-15,13:25:00,DRY,1.95,8.70,44.5,778.00,830.9
2020-02-15,13:30:00,DRY,2.00,8.40,46.0,778.00,824.1
2020-02-15,13:35:00,DRY,2.70,9.00,45.0,778.00,836.0
2020-02-15,13:40:00,DRY,3.33,8.80,43.3,778.00,835.7
2020-02-15,13:45:00,DRY,2.25,8.25,44.0,778.00,829.7
2020-02-15,13:50:00,DRY,3.00,8.63,43.0,778.00,822.5
2020-02-15,13:55:00,DRY,1.40,8.45,44.0,778.00,819.8
2020-02-15,14:00:00,DRY,1.13,8.60,43.3,778.00,825.5
2020-02-15,14:05:00,DRY,1.95,8.65,41.5,778.00,826.3
2020-02-15,14:10:00,DRY,2.67,8.90,42.3,778.00,817.3
2020-02-15,14:15:00,DRY,3.15,8.85,43.0,778.00,810.3
2020-02-15,14:20:00,DRY,3.13,8.50,43.7,778.00,810.3
2020-02-15,14:25:00,DRY,3.10,8.65,43.0,778.00,799.8
2020-02-15,14:30:00,DRY,3.17,8.57,42.0,778.00,794.2
2020-02-15,14:35:00,DRY,3.05,8.90,41.5,778.00,794.7
2020-02-15,14:40:00,DRY,3.07,8.43,42.3,778.00,777.4
2020-02-15,14:45:00,DRY,3.55,8.65,42.5,778.00,775.5
2020-02-15,14:50:00,DRY,1.87,8.47,43.7,778.00,768.9
2020-02-15,14:55:00,DRY,3.30,8.95,42.0,778.00,764.9
2020-02-15,15:00:00,DRY,3.27,9.00,44.0,778.00,750.8
2020-02-15,15:05:00,DRY,3.00,8.75,44.0,778.00,743.8
2020-02-15,15:10:00,DRY,3.50,8.37,45.7,778.00,730.5
2020-02-15,15:15:00,DRY,3.25,8.10,46.5,778.00,729.3
2020-02-15,15:20:00,DRY,2.67,8.37,46.7,778.00,705.2
2020-02-15,15:25:00,DRY,3.65,8.30,47.5,778.00,700.5
2020-02-15,15:30:00,DRY,3.33,8.20,47.0,778.00,690.9
2020-02-15,15:35:00,DRY,3.25,8.30,48.0,778.00,681.1
2020-02-15,15:40:00,DRY,4.33,8.30,48.7,778.00,663.9
2020-02-15,15:45:00,DRY,4.00,8.30,49.5,778.00,646.5
2020-02-15,15:50:00,DRY,3.63,8.20,48.3,778.00,629.3
2020-02-15,15:55:00,DRY,4.30,8.20,49.0,778.00,629.2
2020-02-15,16:00:00,DRY,4.33,8.13,49.3,778.00,616.3
2020-02-15,16:05:00,DRY,3.80,8.20,49.0,778.00,600.8
2020-02-15,16:10:00,DRY,4.10,8.33,47.3,778.00,587.6
2020-02-15,16:15:00,DRY,3.60,7.90,48.5,778.00,565.8
2020-02-15,16:20:00,DRY,3.73,7.87,48.0,778.00,553.0
2020-02-15,16:25:00,DRY,4.00,7.85,45.5,778.00,540.5
2020-02-15,16:30:00,DRY,3.97,7.57,46.3,778.00,522.9
2020-02-15,16:35:00,DRY,3.20,7.45,47.5,778.00,505.9
2020-02-15,16:40:00,DRY,4.70,7.57,47.0,777.67,493.0
2020-02-15,16:45:00,DRY,3.50,7.50,51.0,778.00,472.6
2020-02-15,16:50:00,DRY,4.33,7.20,48.0,778.00,454.8
2020-02-15,16:55:00,DRY,4.85,7.15,46.5,778.00,433.6
2020-02-15,17:00:00,DRY,4.13,6.93,47.3,777.67,414.9
2020-02-15,17:05:00,DRY,5.10,6.80,45.0,778.00,392.8
2020-02-15,17:10:00,DRY,5.43,6.70,41.0,778.00,375.7
2020-02-15,17:15:00,DRY,4.95,6.60,40.5,778.00,357.1
2020-02-15,17:20:00,DRY,4.53,6.53,39.3,777.67,338.4
2020-02-15,17:25:00,DRY,4.90,6.50,43.0,778.00,321.5
2020-02-15,17:30:00,DRY,4.20,6.43,38.3,778.00,302.4